Weather History for Papa, Hungary

Change the Weather History Date:

Monday, July 1, 2013

  Actual Average Record
Temperature  
Mean Temperature 58 °F -  
Max Temperature 73 °F - - ()
Min Temperature 44 °F - - ()
Degree Days  
Heating Degree Days 6    
Growing Degree Days 8 (Base 50)    
Moisture  
Dew Point 48 °F    
Average Humidity 66    
Maximum Humidity 93    
Minimum Humidity 36    
Precipitation  
Precipitation 0.00 in - - ()
Sea Level Pressure  
Sea Level Pressure 30.12 in    
Wind  
Wind Speed 3 mph ()    
Max Wind Speed 9 mph    
Max Gust Speed -    
Visibility 5.6 miles    
Events      
T = Trace of Precipitation, MM = Missing Value Source: Averaged Metar Reports

Daily Weather History Graph

Daily Weather History Graph

Search for Another Location

Airport:

Trip Planner

Search our weather history database for the weather conditions in past years. The results will help you decide how hot, cold, wet, or windy it might be!

Date:

Astronomy

Jul. 01, 2013 Rise Set
Actual Time 4:57 AM CEST 8:50 PM CEST
Civil Twilight 4:17 AM CEST 9:30 PM CEST
Nautical Twilight 3:22 AM CEST 10:24 PM CEST
Astronomical Twilight 1:59 AM CEST 11:47 PM CEST
Moon 12:35 AM CEST (7/1) 2:32 PM CEST (7/1)
Length of Visible Light 17h 12m
Length of Day
15h 52m
Last Quarter, 38% of the Moon is Illuminated
Jul 1
Last Quarter
Jul 8
New
Jul 16
First Quarter
Jul 22
Full
Jul 29
Last Quarter

Hourly Weather History & Observations

Time (CEST) Temp. Dew Point Humidity Pressure Visibility Wind Dir Wind Speed Gust Speed Precip Events Conditions
12:15 AM 48.2 °F 44.6 °F 87% 30.12 in - North 4.5 mph - N/A   Clear
12:45 AM 51.8 °F 46.4 °F 82% 30.12 in - North 2.2 mph - N/A   Clear
1:15 AM 46.4 °F 44.6 °F 93% 30.12 in - Calm Calm - N/A   Clear
1:45 AM 48.2 °F 46.4 °F 93% 30.15 in - SSE 2.2 mph - N/A   Clear
2:15 AM 46.4 °F 44.6 °F 93% 30.15 in - Calm Calm - N/A   Clear
2:45 AM 46.4 °F 44.6 °F 93% 30.15 in - SSE 2.2 mph - N/A   Clear
3:15 AM 46.4 °F 44.6 °F 93% 30.12 in - Calm Calm - N/A   Clear
3:45 AM - - N/A% - 3.1 mi Variable 4.5 mph - N/A   Clear
4:15 AM 44.6 °F 42.8 °F 93% 30.12 in - SSE 2.2 mph - N/A   Clear
4:45 AM 44.6 °F 42.8 °F 93% 30.12 in - Calm Calm - N/A   Clear
5:15 AM 44.6 °F 42.8 °F 93% 30.15 in - Calm Calm - N/A   Clear
5:45 AM 46.4 °F 44.6 °F 93% 30.15 in - Calm Calm - N/A   Clear
6:15 AM 50.0 °F 46.4 °F 87% 30.15 in - Calm Calm - N/A   Clear
6:45 AM - - N/A% - - Variable 4.5 mph - N/A   Clear
7:15 AM 55.4 °F 50.0 °F 82% 30.15 in - Calm Calm - N/A   Clear
7:45 AM 57.2 °F 48.2 °F 72% 30.15 in - Calm Calm - N/A   Clear
8:15 AM 60.8 °F 48.2 °F 63% 30.15 in - WNW 2.2 mph - N/A   Clear
8:45 AM 60.8 °F 46.4 °F 59% 30.18 in - North 2.2 mph - N/A   Clear
9:15 AM 62.6 °F 48.2 °F 59% 30.15 in - North 2.2 mph - N/A   Clear
9:45 AM 64.4 °F 48.2 °F 56% 30.15 in - NW 4.5 mph - N/A   Clear
10:15 AM 64.4 °F 48.2 °F 56% 30.15 in 6.2 mi SW 2.2 mph - N/A   Partly Cloudy
10:45 AM 66.2 °F 48.2 °F 52% 30.15 in 6.2 mi South 2.2 mph - N/A   Partly Cloudy
11:15 AM 68.0 °F 46.4 °F 46% 30.15 in 6.2 mi NW 4.5 mph - N/A   Partly Cloudy
11:45 AM 69.8 °F 46.4 °F 43% 30.15 in 6.2 mi NNW 6.7 mph - N/A   Scattered Clouds
12:15 PM 69.8 °F 46.4 °F 43% 30.15 in - WNW 8.9 mph - N/A   Clear
12:45 PM - - N/A% - - NW 6.7 mph - N/A   Clear
1:15 PM 71.6 °F 48.2 °F 43% 30.12 in - North 8.9 mph - N/A   Clear
1:45 PM 71.6 °F 46.4 °F 41% 30.12 in - NNW 4.5 mph - N/A   Clear
2:15 PM 71.6 °F 48.2 °F 43% 30.12 in - NW 8.9 mph - N/A   Clear
2:45 PM 73.4 °F 48.2 °F 41% 30.12 in - WNW 6.7 mph - N/A   Clear
3:15 PM 73.4 °F 48.2 °F 41% 30.12 in - NNW 6.7 mph - N/A   Clear
3:45 PM - - N/A% - - NW 6.7 mph - N/A   Clear
4:15 PM 73.4 °F 50.0 °F 44% 30.09 in - WNW 8.9 mph - N/A   Clear
4:45 PM 73.4 °F 48.2 °F 41% 30.09 in - West 4.5 mph - N/A   Clear
5:15 PM 73.4 °F 46.4 °F 38% 30.09 in - NW 4.5 mph - N/A   Clear
5:45 PM 73.4 °F 44.6 °F 36% 30.09 in - North 4.5 mph - N/A   Clear
6:15 PM 73.4 °F 46.4 °F 38% 30.09 in - WNW 6.7 mph - N/A   Clear
6:45 PM - - N/A% - - Variable 4.5 mph - N/A   Clear
7:15 PM 73.4 °F 50.0 °F 44% 30.09 in - North 4.5 mph - N/A   Clear
7:45 PM 71.6 °F 48.2 °F 43% 30.09 in - NE 2.2 mph - N/A   Clear
8:15 PM 68.0 °F 55.4 °F 64% 30.09 in - NE 2.2 mph - N/A   Clear
8:45 PM 64.4 °F 51.8 °F 64% 30.09 in - East 4.5 mph - N/A   Clear
9:15 PM 60.8 °F 55.4 °F 82% 30.09 in - ESE 2.2 mph - N/A   Clear
9:45 PM 59.0 °F 55.4 °F 88% 30.09 in - SSE 4.5 mph - N/A   Clear
10:15 PM 57.2 °F 51.8 °F 82% 30.12 in - SE 4.5 mph - N/A   Clear
10:45 PM 59.0 °F 51.8 °F 77% 30.09 in - SE 4.5 mph - N/A   Clear
11:15 PM 59.0 °F 51.8 °F 77% 30.09 in - ESE 2.2 mph - N/A   Clear
11:45 PM 55.4 °F 51.8 °F 88% 30.09 in - SE 4.5 mph - N/A   Clear